CAPE
2102 1838 2027 1749 2002 2090 1910 2153 2221 2313 2719 2660 2771 2798 2921 3081 3292 3148 3069 2655 2229 1929 1133 715 483 699 733 595 227 42 29 29 17 0 0 0 0 0 0 0 0 0 0
2619 2794 1899 1785 1702 1671 1789 1717 1964 2233 2384 2570 2494 2768 2913 2946 3064 3071 2806 2394 2647 2408 1833 1229 1108 476 489 777 857 659 294 149 100 0 0 3 17 0 0 0 0 0 0
2604 1875 1828 1954 1905 1899 1845 1722 1775 1999 2200 2128 2265 2460 2631 2698 2738 2806 2716 2532 2698 2673 2387 1831 1398 1247 1003 438 559 804 785 438 158 118 0 0 0 0 0 0 0 0 0
1714 1701 2241 1830 1871 1880 2114 2441 2158 2238 2209 2142 2125 2276 2450 2422 2388 2530 2487 2635 2659 2701 2711 2235 1810 1280 1331 1390 799 513 680 727 499 224 106 0 0 0 2 0 1 0 0
2601 2150 2705 2797 2684 2666 2912 2794 2668 2640 2307 2151 2137 2166 2306 2288 2133 2328 2398 2374 2566 2686 2720 2484 2013 1423 1086 1540 1595 1039 449 513 572 536 400 12 0 0 0 0 0 0 0
2632 2728 3066 3438 3376 3514 3534 3475 3365 2847 2715 2600 2513 2034 2006 1841 1157 1262 1268 1767 2008 2350 2649 2661 2466 1306 1004 1297 1560 1536 1276 543 448 451 483 282 0 0 0 0 0 0 0
2696 2978 3242 3535 3571 3663 3494 3390 3376 3182 3128 2920 2590 2430 2309 2181 1049 880 845 1587 1436 1683 2334 2594 2536 2118 1126 770 1288 1388 1512 1548 873 494 450 331 61 0 0 0 0 0 0
2685 2911 3233 3472 3566 3711 3772 3731 3826 3195 3221 2978 2696 2803 2497 2311 1255 920 756 1408 1734 2031 2073 2427 3275 2737 2140 802 671 1323 1279 1340 1393 1116 643 359 312 25 0 0 0 0 0
2625 2883 3181 3311 3478 3645 3714 3848 3672 3387 3246 2778 2825 3197 3120 3011 1740 1333 1038 1593 1726 2010 2482 3325 3465 2951 1966 1368 671 1295 1482 1237 1213 1244 1220 589 200 130 0 0 0 0 0
2790 2807 3080 3384 3514 3617 3743 3962 3881 2955 3133 2463 3059 3363 2770 3266 2249 1749 1297 1760 1855 2081 2953 3302 2446 2078 1716 1334 853 1057 1574 1403 1205 1021 1287 1199 321 263 58 0 0 0 0
2493 2566 3005 3218 3603 3693 3901 3923 3651 3174 3066 3566 3492 3729 3556 3168 3420 2077 1709 1945 1881 1988 2114 2126 2142 1699 1490 1080 904 1082 1425 1662 1342 1056 982 1165 527 221 454 0 0 0 0
2461 2487 3060 3137 2545 2329 3692 3596 3567 3561 3780 3663 3962 3207 2484 3493 2382 2346 1993 1647 1671 2057 2465 1957 2310 1780 1604 1321 1144 1283 1422 1710 1911 970 1304 1186 730 484 414 0 0 0 0
2678 3041 3151 3121 2616 2932 3565 3107 2698 3189 2662 2808 2364 2334 2141 2097 2797 2212 1865 1743 1605 1356 2090 1952 1898 1863 1747 1583 1298 1569 1813 1705 1692 1523 1281 1141 802 145 267 0 0 0 0
2206 2758 2796 2813 2540 2559 2371 2457 2501 2308 2382 2361 2054 2121 1963 2000 2007 2113 1947 1831 1295 1335 1331 1318 1375 1414 1506 1605 1437 1363 1668 1326 1146 1073 1125 956 586 400 93 0 0 0 0
2363 2298 2295 2294 2270 2427 2708 2159 2136 2744 1951 2191 2221 2098 1893 1781 1616 1484 1942 2446 2323 2008 1676 1135 1098 1161 1302 1439 1545 1723 1795 1644 1313 1041 1025 610 528 527 0 0 0 0 0
2273 2280 2218 2096 2087 2163 2220 2571 1712 1602 1717 1594 1592 1519 1815 1313 1295 1445 1675 1626 1272 1255 1524 1749 1364 1546 1751 1930 2024 2072 1737 1456 1211 1375 1222 683 551 124 10 0 0 0 0
2223 1952 1913 1485 1974 2131 2303 2263 2350 1903 1416 1543 1594 1448 1417 1464 1401 1450 1528 1408 1432 1415 1519 2119 1638 1764 1907 2243 2416 2046 1843 1538 1534 1545 1314 623 576 151 0 0 0 0 0
2079 1329 1995 1939 1827 1808 1959 2141 2207 2198 2333 2466 1495 1197 1206 1251 1180 1156 1167 1221 1297 1410 1544 1810 1915 1986 2044 2268 2208 2384 1886 1602 1479 1357 731 870 480 57 2 0 0 0 0
1145 1114 1628 1608 1800 1724 1927 2008 2109 2182 2218 2264 2308 1958 1629 1204 1139 1248 1468 1722 2019 2131 2083 2236 2300 2216 2064 2155 2461 2247 2025 1637 1467 1417 1041 734 385 49 0 0 0 0 0
1392 1478 1202 2009 2084 2240 2061 2187 2369 2443 2603 2793 3003 3157 2643 2491 2579 2659 2643 2709 2758 2682 2552 2524 2271 2212 1995 1936 2146 2090 1651 1341 1708 1217 1221 808 240 0 0 0 0 0 0
593 1019 1620 1324 1689 1845 2084 2404 2735 3514 3336 3548 3501 3483 3197 2718 3167 3123 2364 2181 2764 2851 2745 2657 2622 2437 2171 2364 2263 1936 1747 881 1608 1588 1059 839 63 0 0 0 0 0 0
112 136 337 495 944 1488 2055 2401 2762 2825 3119 3109 3318 2713 2677 2633 2743 2827 3022 2618 2085 2365 2450 2462 2393 2193 2094 1668 1596 1288 1434 1030 1422 892 616 252 0 0 0 0 0 0 0
4 10 38 47 91 189 422 496 902 1163 1632 2062 2271 2339 2482 2106 1919 2145 2331 2220 2194 2394 2394 2466 2146 1750 1251 1067 817 866 834 962 1132 453 277 0 0 0 0 0 0 0 0
0 0 0 3 0 11 77 223 367 555 792 1191 1872 2103 2157 1796 1350 1425 1481 1698 2175 2434 2373 1875 1444 1058 831 676 561 700 843 960 610 198 300 0 0 0 0 0 0 0 0
0 0 0 0 0 1 0 0 27 193 339 504 673 881 1113 1275 1208 1411 1530 1715 1955 2195 2177 1655 919 784 582 344 340 540 748 946 140 307 161 0 0 0 0 0 0 0 0
0 0 0 0 2 8 5 13 33 35 117 241 412 666 842 1135 1249 1347 1606 1847 1878 1908 1725 1280 831 672 375 263 185 508 618 467 417 189 0 0 0 0 0 0 0 0 0
CIN
-18 -36 -34 -65 -59 -61 -81 -62 -42 -20 -12 -18 -6 -4 0 0 0 0 0 -1 -33 -69 -176 -241 -195 -137 -136 -109 -98 -110 -113 -79 -77 -7 0 0 0 0 0 0 0 0 0
-17 -8 -56 -64 -80 -94 -109 -120 -88 -54 -38 -35 -33 -17 -3 -3 -5 -2 -4 -14 -11 -27 -94 -178 -155 -253 -253 -160 -137 -130 -142 -135 -113 -19 0 -11 -42 0 0 0 0 0 0
-15 -53 -48 -39 -46 -69 -96 -127 -127 -98 -77 -81 -68 -59 -41 -23 -25 -25 -24 -25 -15 -19 -45 -105 -161 -157 -165 -248 -235 -168 -139 -155 -159 -116 -13 0 0 0 0 0 0 0 0
-56 -56 -22 -46 -52 -63 -70 -60 -110 -111 -100 -102 -101 -93 -84 -63 -60 -66 -67 -50 -41 -31 -27 -67 -116 -212 -165 -135 -208 -291 -223 -181 -156 -117 -107 0 0 0 -30 0 -5 0 0
-17 -40 -18 -18 -15 -21 -7 -31 -66 -77 -113 -116 -117 -121 -119 -107 -97 -100 -104 -99 -83 -66 -47 -76 -122 -227 -244 -172 -175 -234 -279 -205 -147 -120 -70 -39 0 0 -3 0 0 0 0
-35 -41 -24 -11 -12 -4 -1 -2 -14 -64 -84 -96 -108 -148 -166 -173 -226 -244 -248 -140 -137 -113 -80 -82 -105 -298 -330 -281 -190 -110 -130 -207 -183 -130 -92 -35 -1 0 0 0 0 0 0
-50 -40 -26 -16 -19 -10 -10 -7 -8 -31 -48 -76 -118 -132 -160 -179 -296 -316 -344 -221 -209 -187 -123 -103 -125 -186 -384 -445 -240 -183 -112 -56 -97 -103 -61 -25 -101 0 0 0 0 0 0
-86 -66 -50 -21 -15 -13 -10 -7 -5 -20 -25 -67 -102 -108 -145 -179 -322 -383 -398 -304 -241 -212 -207 -171 -105 -145 -179 -416 -382 -208 -154 -94 -24 -11 -46 -34 -14 -53 0 0 0 0 0
-161 -115 -68 -63 -36 -14 -9 -8 -16 -15 -12 -64 -85 -61 -90 -133 -281 -340 -381 -284 -270 -252 -192 -136 -117 -140 -214 -296 -394 -225 -128 -100 -50 -5 -2 -12 -20 -21 0 0 0 0 0
-179 -142 -92 -52 -36 -24 -21 -10 -12 -48 -27 -68 -41 -40 -111 -93 -216 -290 -335 -235 -217 -211 -151 -142 -246 -267 -278 -334 -377 -242 -118 -55 -60 -49 -1 0 -1 -4 -37 0 0 0 0
-171 -141 -88 -71 -41 -32 -24 -23 -25 -27 -23 -5 -6 -5 -36 -77 -80 -252 -319 -258 -199 -171 -165 -142 -158 -291 -346 -406 -373 -266 -183 -61 -43 -42 -17 0 0 -6 0 0 0 0 0
-104 -115 -69 -77 -114 -93 -20 -23 -24 -15 -5 -7 0 -29 -69 -23 -163 -198 -273 -334 -337 -196 -127 -137 -137 -242 -302 -346 -308 -228 -168 -51 -12 -59 -2 0 0 0 0 0 0 0 0
-57 -45 -45 -62 -110 -61 -28 -41 -42 -25 -30 -16 -43 -64 -86 -82 -64 -201 -280 -342 -389 -424 -231 -218 -273 -258 -297 -302 -289 -182 -112 -65 -18 -8 -5 0 0 -42 0 0 0 0 0
-133 -68 -60 -71 -97 -84 -72 -62 -51 -35 -32 -28 -30 -44 -57 -69 -87 -110 -236 -299 -397 -418 -436 -411 -402 -405 -352 -292 -265 -246 -130 -141 -106 -43 -10 -5 -23 -6 -19 0 0 0 0
-104 -86 -92 -98 -110 -79 -67 -69 -53 -42 -37 -20 -23 -27 -33 -50 -87 -129 -121 -119 -133 -206 -257 -377 -388 -382 -371 -290 -233 -158 -113 -95 -81 -60 -23 -53 -10 0 -39 0 0 0 0
-84 -71 -83 -89 -62 -58 -52 -57 -114 -106 -75 -122 -105 -88 -46 -130 -141 -183 -193 -189 -244 -289 -312 -286 -429 -389 -273 -196 -142 -97 -127 -126 -100 -24 -17 -25 -6 -41 -61 0 0 0 0
-83 -73 -93 -153 -70 -35 -28 -23 -14 -70 -147 -131 -154 -196 -212 -201 -200 -214 -251 -254 -298 -310 -320 -237 -319 -269 -217 -121 -68 -92 -86 -84 -37 -7 -3 -38 0 -23 0 0 0 0 0
-93 -175 -87 -67 -75 -55 -21 -19 -17 -14 -6 -48 -191 -321 -337 -357 -375 -378 -372 -342 -361 -322 -260 -248 -213 -217 -176 -104 -91 -38 -58 -35 -29 -18 -38 -5 -11 -71 -49 0 0 0 0
-183 -216 -139 -96 -58 -56 -27 -23 -21 -24 -19 -21 -36 -140 -216 -310 -304 -303 -191 -167 -148 -159 -144 -146 -154 -172 -168 -111 -53 -52 -34 -24 -15 -5 0 -11 -29 -64 0 0 0 0 0
-99 -142 -188 -76 -57 -40 -35 -30 -6 -8 -6 -5 -3 -2 -73 -82 -88 -94 -119 -125 -119 -126 -135 -132 -150 -145 -150 -127 -72 -53 -55 -50 -7 -23 0 -3 -56 0 0 0 0 0 0
-83 -97 -64 -113 -84 -67 -39 -14 -3 -2 -27 0 0 -1 -7 -26 -9 -22 -120 -163 -96 -77 -76 -78 -73 -86 -85 -44 -44 -54 -51 -113 -2 0 -1 -3 -22 0 0 0 0 0 0
-70 -57 -77 -99 -96 -55 -23 -10 -1 -1 -4 -10 0 -8 -36 -35 -16 -13 -18 -64 -107 -81 -79 -59 -52 -62 -51 -90 -80 -94 -61 -65 -11 -37 -54 -82 0 0 0 0 0 0 0
-28 -69 -45 -108 -174 -138 -90 -142 -68 -54 -82 -56 -13 -19 -24 -44 -57 -42 -43 -59 -68 -42 -33 -20 -43 -70 -140 -145 -184 -152 -127 -78 -33 -81 -89 0 0 0 0 0 0 0 0
0 0 0 -76 -4 -137 -159 -105 -100 -98 -115 -79 -24 -7 -19 -37 -91 -80 -84 -80 -27 -5 -2 -25 -67 -126 -183 -164 -191 -152 -121 -80 -77 -107 -58 0 0 0 0 0 0 0 0
0 0 0 0 0 -3 0 0 -211 -47 -60 -88 -114 -98 -66 -74 -68 -53 -43 -35 -28 -3 0 -7 -56 -77 -126 -189 -187 -135 -92 -43 -146 -67 -66 0 0 0 0 0 0 0 0
0 0 0 0 -5 -82 -136 -112 -77 -68 -176 -211 -140 -85 -68 -35 -16 -24 -16 -17 -21 -6 -1 -15 -38 -49 -122 -157 -185 -94 -66 -78 -47 -63 0 0 0 0 0 0 0 0 0
Wind_Speed
7 5 5 4 3 4 5 4 7 9 7 6 7 6 5 6 7 8 12 11 14 15 19 24 27 27 30 32 35 nan nan nan nan nan nan nan nan nan nan nan nan nan nan
11 8 5 5 4 3 3 2 4 6 5 5 5 7 5 4 4 6 10 12 13 15 20 22 24 30 32 36 39 46 47 50 50 nan nan nan nan nan nan nan nan nan nan
13 9 7 5 3 2 3 3 1 0 2 3 2 4 4 3 3 3 8 12 12 16 18 19 21 28 33 34 44 48 54 58 50 55 nan nan nan nan nan nan nan nan nan
13 10 8 5 4 4 6 5 6 2 1 3 3 3 4 3 3 4 6 9 12 13 14 17 19 28 35 39 44 51 55 55 53 56 50 nan nan nan nan nan nan nan nan
17 13 10 10 10 10 10 8 8 6 4 1 3 4 4 1 2 4 5 5 7 11 13 16 21 28 36 42 44 47 49 56 52 51 52 nan nan nan nan nan nan nan nan
17 16 15 16 15 13 13 12 11 8 7 6 3 5 6 4 6 8 5 4 2 7 10 15 21 31 36 43 44 43 59 53 57 61 58 58 nan nan nan nan nan nan nan
14 16 19 18 16 15 15 15 13 11 11 9 6 4 6 7 11 14 9 5 4 4 8 15 18 26 37 39 47 53 51 61 55 58 57 58 nan nan nan nan nan nan nan
13 16 19 19 17 18 18 17 16 15 12 11 10 8 9 9 17 16 19 8 6 5 8 13 17 22 32 43 49 50 60 60 63 65 66 62 65 nan nan nan nan nan nan
11 14 16 18 20 20 18 17 17 16 14 13 11 11 10 10 21 22 22 13 12 8 10 12 17 22 30 53 49 54 53 58 65 67 60 62 64 65 nan nan nan nan nan
14 15 19 21 22 23 21 20 20 20 16 16 16 14 11 12 20 24 25 14 12 13 14 16 23 26 37 53 53 45 55 58 60 64 66 65 67 69 nan nan nan nan nan
17 19 23 23 25 27 26 25 24 23 20 19 17 17 15 15 15 22 26 16 11 14 15 17 23 39 43 50 55 55 53 57 66 66 68 64 63 67 69 nan nan nan nan
21 21 23 25 27 30 31 29 27 26 24 20 20 19 16 17 15 18 23 23 13 11 11 14 17 39 45 53 56 50 63 61 66 68 69 62 62 60 67 nan nan nan nan
29 26 23 25 29 31 35 34 33 29 23 22 20 19 17 17 19 19 23 22 17 15 13 24 32 36 42 45 51 59 68 62 68 69 70 60 61 58 64 nan nan nan nan
25 26 27 27 28 30 33 38 35 31 26 22 21 20 20 21 20 21 25 26 30 26 21 16 22 32 37 44 51 56 60 63 69 71 68 63 58 58 nan nan nan nan nan
24 26 29 29 28 29 29 34 34 31 29 27 25 24 24 25 24 26 26 33 35 32 34 36 34 38 42 45 49 59 54 63 70 71 65 59 58 60 nan nan nan nan nan
29 26 28 30 29 28 30 31 29 33 37 29 28 32 28 26 43 37 36 35 37 46 33 33 35 40 42 46 50 56 59 66 69 69 61 58 57 58 nan nan nan nan nan
27 29 31 27 27 28 28 26 27 31 29 30 28 24 27 22 41 35 36 40 47 43 31 31 35 41 43 49 53 55 60 65 68 64 59 56 56 59 nan nan nan nan nan
31 35 27 25 26 25 25 25 26 25 24 24 19 17 21 23 28 37 49 50 40 38 33 32 37 42 46 51 54 58 63 66 67 61 55 55 56 nan nan nan nan nan nan
49 46 36 27 27 28 25 24 23 23 23 25 30 34 38 38 37 39 42 33 33 34 37 36 40 45 49 53 56 62 63 69 64 60 54 54 54 nan nan nan nan nan nan
51 56 50 47 44 34 26 25 25 25 26 26 27 28 38 37 30 32 33 34 34 34 38 43 46 48 51 57 62 66 66 68 58 56 55 55 52 nan nan nan nan nan nan
45 53 53 49 47 44 41 38 37 32 28 23 24 30 37 27 26 29 33 36 38 40 43 45 49 53 58 64 67 68 66 60 59 54 53 52 nan nan nan nan nan nan nan
52 54 54 53 54 52 47 46 46 42 40 36 34 46 46 34 34 35 37 41 42 45 49 51 53 58 64 65 68 66 56 56 56 51 52 52 nan nan nan nan nan nan nan
nan nan nan nan nan 56 57 57 55 47 49 48 46 46 45 42 43 43 46 48 52 53 56 57 58 59 59 58 59 54 54 54 53 53 49 nan nan nan nan nan nan nan nan
nan nan nan nan nan nan nan 57 56 57 56 53 54 48 47 49 52 53 54 56 59 60 60 60 60 58 57 58 54 51 49 49 50 46 48 nan nan nan nan nan nan nan nan
nan nan nan nan nan nan nan nan nan 55 45 46 64 51 41 44 48 50 54 56 52 53 54 58 60 57 55 53 52 49 44 49 45 46 47 nan nan nan nan nan nan nan nan
nan nan nan nan nan nan nan nan nan nan 53 52 46 47 50 48 44 43 44 44 45 45 43 50 53 52 49 51 50 47 49 47 51 51 nan nan nan nan nan nan nan nan nan
Wind_Direction
235 211 195 197 219 228 204 160 126 122 126 104 86 80 61 59 61 61 86 85 67 55 46 33 26 21 23 18 14 nan nan nan nan nan nan nan nan nan nan nan nan nan nan
246 231 236 226 228 233 232 179 119 112 115 119 97 77 61 76 66 63 84 88 64 52 42 34 27 18 16 14 8 7 8 1 358 nan nan nan nan nan nan nan nan nan nan
245 251 234 235 259 247 261 259 237 130 95 84 76 78 61 93 96 113 109 94 68 51 41 24 21 13 10 9 5 2 3 356 356 354 nan nan nan nan nan nan nan nan nan
251 253 246 250 246 243 249 264 279 268 60 67 39 38 41 103 113 151 128 88 71 49 38 29 16 10 9 4 5 2 357 351 352 3 18 nan nan nan nan nan nan nan nan
257 253 250 253 242 235 242 254 268 291 297 316 7 22 19 15 194 172 141 109 63 49 29 17 13 7 6 5 3 355 357 3 5 356 355 nan nan nan nan nan nan nan nan
265 264 250 252 255 251 246 252 260 278 300 299 7 350 360 313 265 252 196 184 69 16 27 13 5 352 359 359 358 345 350 349 351 349 351 356 nan nan nan nan nan nan nan
249 249 247 251 255 260 258 251 258 269 275 303 312 327 347 340 284 270 280 254 216 327 350 350 349 342 350 353 357 2 360 357 356 349 351 349 nan nan nan nan nan nan nan
244 240 247 250 252 256 260 261 259 259 271 273 289 295 293 301 303 299 288 298 262 318 347 339 342 356 352 349 7 348 351 352 351 348 346 347 344 nan nan nan nan nan nan
282 270 262 258 258 258 260 264 264 261 265 269 270 281 300 290 302 311 305 305 291 302 310 316 332 0 349 348 356 350 352 347 344 340 340 341 339 339 nan nan nan nan nan
304 281 261 259 253 252 257 257 257 259 256 255 261 269 281 284 300 313 311 313 312 278 280 301 326 348 340 341 348 3 354 347 341 337 341 347 346 347 nan nan nan nan nan
297 281 268 261 257 251 248 249 252 256 252 258 257 263 265 275 284 306 312 311 294 273 285 308 334 343 344 333 342 341 352 339 337 341 338 341 343 342 343 nan nan nan nan
261 260 263 257 255 254 248 245 249 253 259 261 262 266 270 274 284 286 304 314 290 284 309 326 329 325 344 334 335 327 329 332 335 336 336 340 339 338 339 nan nan nan nan
265 256 253 254 252 246 249 246 244 249 248 260 260 267 265 261 268 286 293 296 305 284 297 284 284 315 323 324 321 331 327 334 332 332 337 338 334 336 335 nan nan nan nan
274 248 245 253 252 254 249 246 242 246 251 254 259 262 258 261 260 254 266 264 269 280 291 304 300 310 312 315 315 321 327 333 335 332 334 335 332 333 nan nan nan nan nan
280 264 249 250 255 252 252 248 247 246 248 252 253 251 254 255 254 256 257 259 266 283 292 289 300 306 311 311 313 325 328 334 331 331 330 329 332 339 nan nan nan nan nan
265 260 255 257 260 260 250 245 235 233 246 249 246 250 256 258 256 262 264 269 261 282 284 293 301 305 311 313 315 324 331 330 328 327 328 331 335 337 nan nan nan nan nan
245 249 256 252 247 249 248 240 243 253 248 249 247 249 264 256 261 261 264 263 269 277 284 288 295 302 307 307 315 324 327 324 322 325 329 327 333 339 nan nan nan nan nan
237 233 236 239 240 234 242 244 241 242 250 255 264 263 258 260 260 268 264 267 269 274 279 287 295 299 301 307 312 317 318 321 323 324 326 327 335 nan nan nan nan nan nan
231 224 218 232 230 230 230 238 239 238 231 231 242 244 249 250 258 269 280 268 270 276 280 287 293 295 299 304 309 310 317 320 320 324 324 327 334 nan nan nan nan nan nan
228 222 222 220 222 222 225 225 226 231 233 237 242 247 261 264 265 270 271 270 271 276 279 284 287 292 299 301 304 308 313 316 318 324 326 328 335 nan nan nan nan nan nan
226 229 226 224 222 220 214 214 219 217 221 231 246 247 262 259 259 268 273 275 278 280 282 285 288 293 296 298 302 307 311 313 319 322 325 328 nan nan nan nan nan nan nan
232 233 226 226 222 216 216 218 218 215 219 223 238 249 254 252 249 257 268 276 278 279 281 285 287 289 295 301 305 308 311 315 318 322 325 327 nan nan nan nan nan nan nan
nan nan nan nan nan 223 220 218 221 215 217 220 226 235 244 254 261 260 262 266 272 275 276 279 284 291 298 305 311 311 310 313 317 320 325 nan nan nan nan nan nan nan nan
nan nan nan nan nan nan nan 223 229 229 234 232 230 231 240 248 247 249 257 266 273 278 278 281 285 295 301 301 305 305 308 309 313 318 322 nan nan nan nan nan nan nan nan
nan nan nan nan nan nan nan nan nan 229 234 247 241 231 238 246 246 250 253 265 281 286 285 282 285 295 301 300 301 306 310 311 317 314 315 nan nan nan nan nan nan nan nan
nan nan nan nan nan nan nan nan nan nan 240 242 238 238 242 246 246 252 258 268 276 285 285 285 284 293 296 298 303 304 298 305 302 309 nan nan nan nan nan nan nan nan nan